Wind_Speed
19 20 21 22 23 24 26 28 29 32 35 38 40 42 44 46 48 50 53 55 57 59 61 63 65 67 69 70 71 73 73 74 74 75 74 72 69 66 62 58 53 48 44 41
20 21 23 24 24 26 27 29 32 35 39 42 45 48 50 53 57 60 62 65 67 69 71 73 75 76 77 78 79 80 80 80 80 81 81 78 74 70 67 63 59 55 50 47
22 24 26 26 26 29 31 33 36 41 45 49 52 55 58 62 65 69 72 75 77 80 81 82 82 81 81 81 82 83 84 84 85 85 85 84 81 78 75 71 67 61 55 52
23 25 25 27 29 33 36 38 42 47 50 54 58 62 66 70 75 77 79 80 79 77 73 68 64 61 61 62 63 66 69 72 75 79 80 81 81 80 78 76 72 67 62 57
24 26 31 30 34 37 41 44 48 52 56 60 64 68 72 75 78 77 73 67 61 54 48 44 43 43 43 43 44 45 47 49 52 56 60 64 67 69 71 72 71 68 63 58
28 30 33 37 40 43 47 51 55 59 63 67 72 75 75 73 69 62 55 48 44 41 42 44 44 44 44 43 42 41 41 41 40 41 43 46 49 53 56 59 62 62 60 56
30 33 37 40 44 47 51 56 60 64 69 73 76 76 72 63 55 48 43 42 43 44 45 46 46 47 46 45 43 43 42 40 38 36 35 34 35 37 40 44 48 53 54 52
33 36 41 45 48 51 55 60 65 69 73 75 74 68 60 51 45 43 43 44 45 46 46 47 48 48 46 45 45 45 44 41 38 35 33 31 29 28 29 31 35 41 47 50
36 39 43 48 52 55 60 64 69 72 74 73 68 58 49 44 43 44 45 46 47 48 49 49 49 49 48 47 46 46 44 42 39 36 34 31 28 26 25 26 28 33 43 50
39 42 45 49 54 58 63 68 72 74 73 67 58 50 44 43 44 45 47 48 50 51 51 50 50 50 50 49 48 47 44 42 41 38 34 31 28 27 25 24 23 27 39 47
43 45 48 52 57 62 67 71 74 72 66 59 51 46 44 44 46 48 50 51 52 52 52 52 50 49 48 47 46 45 44 43 41 37 34 32 29 27 26 25 24 25 35 45
45 48 52 56 60 65 69 72 72 67 59 50 47 45 45 46 48 50 52 53 53 54 53 52 50 48 46 46 45 43 41 39 36 36 34 32 30 28 26 25 25 26 32 41
46 50 54 58 63 68 72 72 68 61 52 46 44 45 47 48 50 52 54 54 54 53 52 49 48 46 44 43 41 38 35 33 31 31 31 31 29 27 26 24 23 24 28 37
49 52 56 60 64 69 72 71 64 55 47 44 45 46 48 50 53 54 55 54 53 51 48 46 45 42 39 36 33 30 27 25 25 27 28 28 27 26 24 24 23 22 27 34
49 53 57 61 66 71 72 69 61 50 43 43 45 47 50 52 54 54 54 53 51 48 46 44 40 36 32 29 25 21 18 18 19 24 26 27 26 25 23 23 22 23 28 34
49 54 58 63 67 71 72 68 58 47 42 43 46 49 51 54 54 52 52 51 49 46 42 39 35 30 26 21 16 12 9 12 17 22 24 25 24 23 23 22 22 25 30 35
50 54 59 63 68 72 71 65 55 45 43 46 48 51 53 53 51 50 50 48 46 43 39 34 29 24 18 13 6 2 6 11 18 22 23 22 22 22 22 23 24 29 34 38
51 55 60 64 69 72 70 62 51 44 44 46 49 52 52 51 50 49 48 46 44 40 36 32 27 21 15 10 6 7 11 16 20 21 21 21 21 22 23 25 29 35 38 41
51 55 59 64 69 71 68 60 49 43 44 47 49 51 51 50 48 47 46 44 41 38 35 31 27 22 17 14 13 14 17 19 20 20 21 22 23 24 27 30 35 37 39 40
50 54 58 63 68 70 67 59 48 42 44 47 49 49 48 47 45 44 43 43 41 39 35 30 27 24 22 20 20 21 22 22 23 23 24 26 28 29 32 36 37 38 38 38
50 53 57 62 66 68 65 57 47 42 43 46 48 47 46 45 42 41 42 41 39 37 34 31 27 26 24 24 25 26 27 28 29 29 31 31 32 33 36 38 37 37 36 36
49 52 56 60 64 66 64 56 47 41 42 44 45 44 42 40 38 38 39 38 37 36 34 31 29 28 28 29 30 32 32 32 32 32 32 32 33 34 35 35 35 34 34 33
48 51 54 58 62 64 62 55 45 39 39 41 42 41 39 37 36 35 35 35 34 33 32 31 31 30 30 31 32 33 33 33 33 33 33 33 32 32 32 32 32 30 29 29
47 49 53 56 60 62 61 54 43 37 36 38 38 37 35 33 31 31 32 31 30 30 30 30 30 30 30 30 31 31 31 32 32 31 30 29 28 28 29 29 28 28 27 27
46 48 51 54 57 60 61 54 43 34 32 33 33 33 31 30 28 27 27 27 27 27 26 26 26 27 26 26 26 27 27 27 26 25 24 24 25 25 26 26 25 25 25 24
45 47 49 52 55 57 59 55 44 33 28 28 28 28 27 25 24 22 22 23 24 24 23 23 23 23 23 23 22 22 22 21 21 20 20 21 22 22 23 22 23 23 22 22
44 45 48 50 53 55 57 54 46 34 27 25 25 24 23 22 20 18 18 18 19 20 20 19 19 19 19 19 19 19 18 17 17 17 17 18 19 20 20 20 20 20 20 19
Wind_Direction
328 325 322 320 318 315 312 309 307 304 302 304 304 303 302 300 299 297 296 293 291 288 286 283 281 279 276 274 272 271 269 269 269 269 268 268 267 267 267 267 267 269 272 275
331 327 323 321 319 315 313 311 309 308 307 308 307 305 304 303 301 299 297 295 292 289 286 283 280 278 275 273 271 269 267 266 265 265 263 263 263 262 262 262 264 265 268 271
331 326 323 322 320 316 315 314 313 311 309 308 307 307 306 305 302 300 298 296 294 291 289 287 285 283 280 278 275 272 270 268 266 265 264 264 264 262 262 262 263 263 264 266
329 324 322 322 318 315 314 313 311 310 309 309 309 309 308 306 304 302 300 299 298 297 296 295 294 292 289 286 283 280 277 274 271 269 268 266 265 264 263 263 262 261 261 262
329 324 319 321 318 316 315 314 312 312 312 312 311 310 310 308 306 305 304 304 304 304 305 305 304 302 301 299 297 293 289 284 280 277 273 271 268 265 263 261 259 257 256 255
328 324 321 322 320 319 318 317 317 317 316 315 315 313 312 310 309 309 309 309 308 307 306 305 305 303 302 300 299 298 296 293 289 285 281 276 271 266 262 259 255 252 249 247
328 324 322 322 321 321 320 319 318 319 319 318 317 315 315 313 312 312 312 311 309 307 305 304 303 301 300 298 296 296 294 293 291 287 285 280 274 266 260 255 249 243 237 233
328 327 325 324 323 323 321 321 322 322 321 319 318 318 317 316 316 315 313 312 310 308 306 304 302 300 298 296 293 291 290 288 286 284 281 277 273 266 260 251 243 234 224 217
329 328 325 325 325 324 324 324 324 324 323 322 321 321 320 318 317 316 314 312 310 309 308 306 303 300 298 294 291 289 287 283 280 278 275 271 266 261 257 252 243 229 215 207
329 328 328 327 326 326 327 327 327 327 326 324 324 324 322 321 319 318 316 314 312 310 308 307 303 300 298 295 291 287 283 279 275 271 268 264 260 256 254 250 242 227 212 202
330 329 330 330 329 329 330 331 331 330 328 326 326 326 324 323 321 321 319 317 314 312 310 308 305 301 299 296 291 286 281 277 271 264 259 254 252 250 249 244 236 226 213 203
332 331 332 332 332 332 333 334 334 333 331 329 328 328 327 325 323 322 321 320 318 315 312 309 307 304 300 296 292 287 281 275 266 257 250 245 243 242 241 237 233 225 219 208
333 333 334 334 335 335 336 337 337 335 333 332 332 331 329 328 327 326 324 323 321 319 315 312 309 306 302 298 293 288 281 271 259 248 237 232 232 233 232 231 227 222 218 208
334 334 335 336 337 338 339 340 340 338 336 336 336 334 333 331 330 329 328 326 324 322 319 317 313 309 305 301 296 289 278 264 247 232 222 220 222 224 223 221 218 215 209 201
334 334 336 338 339 341 342 343 342 341 340 339 339 338 336 335 334 333 332 331 329 327 324 322 318 314 310 305 300 290 273 251 228 214 209 209 212 214 215 215 211 205 199 193
335 336 338 340 341 343 344 345 344 343 343 343 342 341 340 339 338 338 337 336 334 333 331 329 325 321 317 311 303 287 254 219 201 194 194 198 201 204 205 204 199 195 190 185
336 338 340 342 343 345 346 347 346 346 346 346 345 345 344 344 343 342 342 341 341 342 342 341 340 338 335 332 320 255 181 175 175 176 180 185 189 192 193 190 187 180 176 175
338 340 341 342 344 346 348 349 348 347 348 348 348 349 349 349 348 348 348 349 350 351 354 359 2 4 9 24 63 113 135 148 156 163 169 174 177 179 177 174 170 167 167 167
338 340 342 343 345 347 349 351 350 349 349 351 351 353 352 353 354 355 356 358 1 5 9 12 18 29 43 60 86 111 126 135 144 152 158 160 160 160 159 158 158 160 161 162
339 341 343 344 346 348 350 352 351 350 351 353 354 356 356 358 1 3 6 8 11 15 20 27 36 47 59 74 91 106 116 123 130 135 138 140 142 144 147 149 152 154 156 158
339 341 343 345 347 349 351 352 352 352 353 355 357 359 360 4 7 11 13 15 19 23 29 37 47 56 67 80 92 101 107 111 116 120 124 127 132 138 141 144 148 151 154 156
338 341 343 345 347 349 351 353 353 353 354 356 359 1 5 9 14 17 18 21 26 32 38 46 56 65 75 86 94 99 103 106 109 112 117 122 129 135 139 143 147 150 154 157
338 341 343 345 348 350 352 354 354 353 354 357 360 4 8 13 17 21 24 27 32 38 44 51 60 68 77 86 93 98 101 104 108 112 117 123 128 133 139 143 146 149 154 157
338 340 343 345 348 350 353 355 354 353 354 357 0 4 9 15 20 25 28 31 36 42 48 55 62 70 77 85 90 95 100 104 108 112 118 124 131 137 142 146 149 152 155 159
338 340 342 344 347 350 352 355 355 354 354 356 1 5 9 16 23 29 32 34 39 44 50 56 64 71 77 83 88 93 98 103 108 112 118 125 133 140 146 149 152 156 159 161
337 339 341 343 346 349 351 354 355 353 353 356 0 6 11 16 24 30 34 37 41 45 50 57 64 71 78 84 90 96 101 105 108 113 120 129 137 145 150 154 157 159 161 164
336 338 340 342 345 348 350 353 354 353 351 354 360 5 11 17 24 31 35 38 41 45 51 57 64 70 77 84 91 97 103 108 112 118 125 133 142 150 158 163 164 166 167 169
Height
5842 5839 5835 5831 5827 5824 5820 5816 5812 5807 5800 5794 5788 5782 5777 5770 5764 5758 5751 5745 5738 5732 5726 5721 5715 5710 5705 5701 5697 5694 5691 5689 5687 5686 5686 5687 5688 5690 5693 5695 5698 5701 5703 5705
5838 5834 5830 5826 5822 5818 5813 5809 5804 5798 5791 5785 5778 5771 5764 5757 5749 5741 5733 5726 5718 5710 5703 5697 5690 5685 5680 5675 5671 5668 5666 5664 5663 5662 5662 5663 5665 5668 5671 5675 5680 5684 5687 5690
5834 5829 5825 5821 5817 5811 5806 5802 5796 5789 5782 5774 5766 5757 5749 5740 5731 5721 5712 5703 5693 5684 5676 5668 5661 5655 5650 5646 5642 5639 5637 5636 5634 5634 5635 5637 5639 5643 5647 5653 5658 5664 5670 5674
5830 5826 5821 5819 5811 5805 5799 5794 5786 5778 5770 5761 5752 5742 5732 5720 5708 5698 5687 5676 5666 5656 5648 5640 5633 5627 5622 5618 5614 5610 5608 5607 5606 5605 5607 5609 5612 5616 5621 5627 5635 5643 5650 5657
5825 5820 5814 5812 5805 5797 5790 5783 5775 5766 5756 5746 5736 5725 5714 5699 5685 5673 5662 5652 5643 5635 5628 5622 5616 5611 5606 5601 5596 5592 5589 5586 5584 5582 5582 5584 5586 5589 5595 5602 5610 5619 5628 5637
5819 5815 5809 5803 5795 5787 5780 5770 5760 5750 5740 5728 5716 5704 5695 5679 5665 5653 5643 5635 5628 5622 5616 5610 5604 5598 5593 5588 5583 5579 5575 5571 5569 5566 5565 5564 5564 5567 5571 5577 5585 5595 5606 5617
5815 5809 5801 5795 5786 5778 5770 5761 5749 5737 5724 5711 5697 5683 5670 5658 5647 5638 5630 5623 5617 5610 5603 5597 5591 5585 5579 5575 5570 5566 5562 5559 5556 5554 5552 5550 5549 5550 5552 5556 5563 5572 5584 5597
5809 5802 5795 5784 5775 5767 5758 5746 5734 5721 5708 5693 5679 5665 5652 5641 5632 5625 5619 5612 5604 5597 5590 5583 5576 5570 5564 5559 5555 5551 5548 5545 5544 5542 5541 5540 5539 5540 5541 5543 5547 5554 5565 5578
5802 5796 5786 5775 5765 5756 5745 5733 5720 5706 5691 5675 5661 5649 5639 5630 5622 5615 5607 5599 5591 5583 5576 5569 5561 5554 5548 5543 5538 5535 5532 5531 5530 5529 5529 5529 5529 5531 5532 5533 5536 5541 5550 5562
5794 5786 5778 5768 5757 5746 5734 5720 5705 5689 5673 5658 5646 5636 5628 5620 5612 5603 5595 5585 5577 5568 5560 5552 5544 5536 5530 5525 5520 5517 5515 5514 5514 5514 5516 5517 5519 5521 5523 5526 5529 5533 5540 5550
5786 5778 5769 5759 5747 5734 5722 5707 5691 5675 5658 5644 5634 5626 5617 5609 5601 5591 5582 5572 5562 5552 5543 5535 5527 5519 5512 5506 5501 5498 5496 5495 5496 5498 5502 5505 5509 5512 5515 5519 5522 5526 5532 5540
5779 5769 5759 5749 5737 5724 5710 5695 5679 5663 5648 5636 5625 5617 5608 5599 5589 5579 5569 5558 5547 5537 5527 5517 5509 5501 5494 5488 5482 5479 5477 5477 5479 5483 5488 5493 5498 5503 5507 5512 5516 5521 5526 5533
5771 5761 5751 5740 5727 5713 5698 5682 5666 5650 5638 5628 5619 5609 5599 5589 5579 5567 5556 5544 5532 5521 5510 5500 5492 5484 5477 5470 5465 5461 5460 5461 5463 5468 5475 5482 5488 5495 5500 5506 5510 5516 5521 5529
5763 5753 5743 5732 5719 5704 5688 5671 5656 5641 5630 5620 5612 5602 5591 5580 5569 5556 5543 5531 5518 5506 5495 5485 5476 5468 5461 5455 5450 5447 5446 5447 5451 5456 5465 5473 5481 5488 5494 5500 5506 5511 5518 5526
5758 5747 5736 5724 5710 5695 5679 5663 5648 5636 5625 5616 5606 5595 5584 5572 5559 5546 5533 5519 5506 5494 5483 5473 5463 5455 5448 5443 5439 5436 5436 5438 5442 5449 5458 5467 5475 5482 5489 5495 5502 5508 5515 5524
5752 5740 5728 5716 5702 5687 5671 5656 5641 5630 5620 5611 5601 5589 5577 5564 5551 5537 5524 5510 5496 5484 5473 5462 5453 5445 5438 5433 5431 5430 5431 5434 5439 5446 5455 5463 5471 5479 5485 5492 5498 5506 5514 5523
5745 5733 5721 5709 5695 5680 5664 5649 5635 5624 5616 5607 5596 5584 5572 5559 5546 5532 5519 5505 5491 5478 5466 5455 5446 5438 5432 5429 5427 5428 5430 5434 5439 5446 5454 5462 5470 5477 5484 5490 5497 5505 5515 5525
5738 5726 5714 5701 5688 5675 5660 5645 5632 5621 5613 5603 5592 5580 5568 5555 5541 5528 5515 5502 5489 5477 5464 5454 5445 5438 5433 5430 5429 5430 5433 5437 5443 5450 5457 5464 5470 5477 5484 5491 5499 5508 5519 5529
5732 5721 5710 5697 5683 5669 5655 5641 5629 5619 5610 5600 5589 5577 5565 5553 5540 5527 5515 5502 5490 5478 5468 5458 5450 5443 5439 5436 5436 5437 5440 5444 5449 5455 5461 5467 5473 5480 5487 5495 5504 5515 5525 5535
5727 5716 5705 5693 5679 5665 5651 5638 5626 5617 5608 5599 5588 5577 5565 5554 5542 5530 5518 5506 5494 5484 5474 5466 5459 5454 5450 5447 5447 5448 5450 5454 5458 5462 5467 5474 5480 5487 5495 5504 5513 5523 5532 5542
5722 5712 5701 5689 5676 5662 5648 5636 5624 5615 5607 5598 5588 5577 5567 5556 5545 5534 5524 5514 5503 5494 5485 5478 5471 5467 5463 5461 5460 5461 5463 5466 5469 5474 5479 5485 5491 5498 5505 5514 5523 5531 5540 5548
5717 5707 5697 5686 5673 5660 5647 5634 5623 5614 5606 5598 5589 5580 5570 5560 5551 5541 5532 5523 5514 5506 5499 5492 5486 5482 5478 5477 5476 5476 5478 5480 5484 5488 5492 5498 5504 5510 5518 5525 5533 5540 5547 5555
5712 5703 5693 5682 5671 5658 5645 5633 5622 5614 5607 5599 5591 5582 5573 5564 5556 5548 5541 5533 5526 5519 5513 5507 5502 5498 5495 5494 5493 5493 5494 5496 5499 5502 5507 5511 5517 5523 5529 5535 5542 5548 5554 5561
5707 5698 5689 5679 5668 5656 5644 5633 5622 5614 5607 5600 5593 5585 5577 5570 5563 5556 5549 5543 5537 5532 5527 5522 5518 5514 5512 5510 5509 5509 5510 5512 5514 5517 5521 5525 5529 5534 5539 5545 5550 5556 5561 5566
5703 5694 5685 5676 5666 5655 5644 5632 5623 5615 5609 5603 5596 5589 5581 5575 5568 5562 5558 5553 5548 5543 5539 5535 5531 5529 5527 5525 5524 5524 5525 5526 5528 5530 5533 5536 5540 5544 5548 5553 5557 5562 5566 5571
5698 5690 5681 5672 5663 5653 5642 5631 5622 5615 5610 5604 5598 5592 5585 5579 5574 5569 5565 5561 5557 5553 5549 5546 5543 5540 5539 5537 5537 5537 5537 5538 5540 5541 5543 5546 5548 5552 5555 5559 5563 5567 5571 5575
5692 5685 5677 5669 5660 5651 5640 5630 5621 5614 5609 5604 5599 5593 5588 5583 5578 5574 5571 5567 5564 5561 5558 5555 5552 5550 5548 5547 5547 5546 5547 5547 5548 5549 5551 5553 5555 5558 5561 5564 5567 5571 5575 5578